ATS 1

operational
NORAD ID: 2608 Int'l Des: 1966-110 Owner: GSFC Country: US
MEOCIRCULAR

ATS 1について

説明を読み込み中...

リアルタイム位置

3D地球を読み込み中...

次回通過

高度履歴

Altitude vs Time

uPlot chart will show altitude changes over time

軌道要素

1 02608U 66110A 26062.47054146 -.00000319 00000-0 00000-0 0 9991
2 02608 4.7081 70.9392 0007000 193.2930 201.0602 1.00333076133744
Epoch: Mar 3, 2026 • Age: 21 hours

現在のステータス

高度 35740.4 km
速度 3.08 km/s
衛星直下点 0.02°N, 134.75°E
タイプ other

大規模コンステレーション

Loading constellations...